Williamsport, PA

4:55 AM EST on February 20, 2018 (GMT -0500)
Williamsport Rgnl

Weather History for KIPT - October, 2014

Change the Weather History Date:

Wednesday, October 1, 2014

  Actual Average Record
Temperature  
Mean Temperature 67 °F 57 °F  
Max Temperature 73 °F 68 °F 91 °F (1927)
Min Temperature 60 °F 47 °F 31 °F (1993)
Degree Days  
Heating Degree Days 0 8  
Month to date heating degree days 0 8  
Since 1 July heating degree days 81 136  
Cooling Degree Days 2 1  
Month to date cooling degree days 2 1  
Year to date cooling degree days 709 698  
Growing Degree Days 15 (Base 50)    
Moisture  
Dew Point 58 °F    
Average Humidity 75    
Maximum Humidity 93    
Minimum Humidity 57    
Precipitation  
Precipitation 0.09 in 0.13 in 1.50 in (2016)
Month to date precipitation 0.09 0.13  
Year to date precipitation 30.00 31.32  
Sea Level Pressure  
Sea Level Pressure 29.99 in    
Wind  
Wind Speed 2 mph (ESE)    
Max Wind Speed 9 mph    
Max Gust Speed 11 mph    
Visibility 8 miles    
Events Fog , Rain , Thunderstorm    
T = Trace of Precipitation, MM = Missing Value Source: NWS Daily Summary

Daily Weather History Graph

Daily Weather History Graph

Search for Another Location

Airport or City:

Trip Planner

Search our weather history database for the weather conditions in past years. The results will help you decide how hot, cold, wet, or windy it might be!

Date:

Astronomy

Oct. 01, 2014 Rise Set
Actual Time 7:04 AM EDT 6:49 PM EDT
Civil Twilight 6:36 AM EDT 7:17 PM EDT
Nautical Twilight 6:04 AM EDT 7:49 PM EDT
Astronomical Twilight 5:32 AM EDT 8:21 PM EDT
Moon 2:05 PM EDT (10/1) No Moon Set
Length of Visible Light 12h 40m
Length of Day
11h 45m
Waxing Crescent, 48% of the Moon is Illuminated
Oct 1
Waxing Crescent
Oct 1
First Quarter
Oct 8
Full
Oct 15
Last Quarter
Oct 23
New

Hourly Weather History & Observations

Time (EDT) Temp. Dew Point Humidity Pressure Visibility Wind Dir Wind Speed Gust Speed Precip Events Conditions
12:29 AM 64.9 °F 59.0 °F 81% 29.96 in 10.0 mi Variable 3.5 mph - 0.00 in Rain , Thunderstorm Light Thunderstorms and Rain
12:44 AM 64.0 °F 59.0 °F 84% 29.96 in 10.0 mi East 6.9 mph - 0.01 in Rain Light Rain
12:54 AM 64.0 °F 57.9 °F 80% 29.96 in 10.0 mi ESE 5.8 mph - 0.01 in Rain Light Rain
1:06 AM 60.1 °F 57.0 °F 90% 29.90 in 8.0 mi Calm Calm - N/A   Overcast
1:12 AM 63.0 °F 59.0 °F 87% 29.97 in 10.0 mi East 3.5 mph - 0.01 in Rain Light Rain
1:28 AM 63.0 °F 59.0 °F 87% 29.98 in 10.0 mi SSE 3.5 mph - 0.02 in Rain Light Rain
1:54 AM 62.1 °F 57.9 °F 86% 29.97 in 10.0 mi ENE 3.5 mph - 0.03 in Rain Light Rain
2:17 AM 63.0 °F 57.9 °F 84% 29.98 in 10.0 mi ENE 4.6 mph - 0.00 in Rain Light Rain
2:52 AM 59.0 °F 57.2 °F 94% 29.90 in 0.8 mi Calm Calm - N/A   Mist
2:54 AM 63.0 °F 57.0 °F 81% 29.97 in 10.0 mi South 4.6 mph - 0.00 in   Overcast
3:11 AM 59.0 °F 57.0 °F 93% 29.90 in 1.8 mi Calm Calm - N/A   Overcast
3:54 AM 62.1 °F 57.9 °F 86% 29.96 in 9.0 mi North 3.5 mph - 0.00 in Rain Light Rain
4:03 AM 57.9 °F 55.9 °F 93% 29.90 in 0.2 mi North 3.5 mph - N/A Fog Fog
4:49 AM 60.8 °F 57.2 °F 88% 29.97 in 10.0 mi East 3.5 mph - 0.02 in   Overcast
4:54 AM 60.8 °F 57.2 °F 88% 29.97 in 10.0 mi East 3.5 mph - N/A   Mostly Cloudy
5:01 AM 60.8 °F 57.2 °F 88% 29.97 in 10.0 mi ESE 3.5 mph - N/A   Mostly Cloudy
5:20 AM 60.1 °F 57.9 °F 93% 29.98 in 7.0 mi Calm Calm - N/A   Overcast
5:54 AM 60.1 °F 57.9 °F 93% 29.97 in 6.0 mi Calm Calm - N/A   Overcast
6:05 AM 60.1 °F 57.9 °F 93% 29.98 in 7.0 mi Calm Calm - N/A   Overcast
6:54 AM 61.0 °F 57.9 °F 90% 29.99 in 6.0 mi Calm Calm - N/A   Overcast
7:18 AM 61.0 °F 57.9 °F 90% 30.00 in 4.0 mi Calm Calm - N/A   Overcast
7:29 AM 61.0 °F 57.9 °F 90% 30.01 in 4.0 mi Calm Calm - N/A   Overcast
8:54 AM 63.0 °F 57.9 °F 84% 30.03 in 6.0 mi Calm Calm - N/A   Mostly Cloudy
9:01 AM 62.1 °F 57.9 °F 86% 30.04 in 7.0 mi ESE 3.5 mph - N/A   Mostly Cloudy
9:26 AM 60.1 °F 57.0 °F 90% 29.93 in 1.5 mi SE 3.5 mph - N/A   Mostly Cloudy
9:32 AM 62.1 °F 57.9 °F 86% 30.05 in 6.0 mi Calm Calm - N/A   Overcast
9:40 AM 60.1 °F 57.0 °F 90% 29.93 in 1.5 mi ESE 3.5 mph - N/A   Overcast
9:54 AM 63.0 °F 57.9 °F 84% 30.05 in 8.0 mi Calm Calm - N/A   Overcast
10:04 AM 63.0 °F 59.0 °F 87% 30.06 in 6.0 mi Calm Calm - N/A   Overcast
10:18 AM 61.0 °F 57.9 °F 90% 29.92 in 6.0 mi Calm Calm - N/A   Overcast
10:54 AM 64.0 °F 59.0 °F 84% 30.07 in 6.0 mi SE 4.6 mph - N/A   Haze
11:54 AM 66.2 °F 57.2 °F 73% 30.06 in 10.0 mi SE 3.5 mph - N/A   Overcast
12:01 PM 66.0 °F 57.9 °F 75% 30.06 in 10.0 mi ESE 3.5 mph - N/A   Overcast
12:08 PM 64.9 °F 57.9 °F 78% 30.06 in 10.0 mi SE 4.6 mph - N/A   Overcast
12:54 PM 66.9 °F 57.9 °F 73% 30.04 in 10.0 mi ESE 3.5 mph - N/A   Overcast
1:52 PM 69.8 °F 59.0 °F 68% 29.90 in 8.0 mi WSW 3.5 mph - N/A   Overcast
1:54 PM 68.0 °F 57.0 °F 68% 30.03 in 10.0 mi Variable 4.6 mph - N/A   Overcast
2:54 PM 69.1 °F 57.0 °F 65% 30.02 in 10.0 mi Calm Calm - N/A   Overcast
2:56 PM 69.1 °F 57.0 °F 65% 30.02 in 10.0 mi Variable 3.5 mph - N/A   Overcast
3:50 PM 73.4 °F 60.8 °F 65% 29.86 in 9.0 mi ESE 5.8 mph - N/A   Mostly Cloudy
3:54 PM 73.0 °F 60.1 °F 64% 29.86 in 9.0 mi SE 9.2 mph - N/A   Mostly Cloudy
4:54 PM 72.0 °F 60.1 °F 66% 29.85 in 10.0 mi Variable 3.5 mph - N/A   Mostly Cloudy
5:54 PM 71.1 °F 57.0 °F 61% 30.00 in 10.0 mi SW 3.5 mph - N/A   Clear
6:54 PM 66.9 °F 61.0 °F 81% 29.88 in 8.0 mi Calm Calm - N/A   Partly Cloudy
7:54 PM 64.0 °F 60.1 °F 87% 30.03 in 10.0 mi East 3.5 mph - N/A   Overcast
8:54 PM 63.0 °F 61.0 °F 93% 30.04 in 10.0 mi South 3.5 mph - 0.05 in   Overcast
9:54 PM 63.0 °F 60.1 °F 90% 30.06 in 10.0 mi Calm Calm - N/A   Overcast
10:54 PM 62.6 °F 59.0 °F 88% 30.07 in 10.0 mi Calm Calm - N/A   Overcast
11:05 PM 61.0 °F 59.0 °F 93% 30.07 in 1.2 mi Calm Calm - N/A   Mostly Cloudy
11:07 PM 61.0 °F 59.0 °F 93% 30.07 in 0.8 mi Calm Calm - N/A   Mostly Cloudy
11:16 PM 61.0 °F 59.0 °F 93% 30.08 in 2.5 mi Calm Calm - N/A   Scattered Clouds
11:23 PM 62.1 °F 59.0 °F 90% 30.08 in 4.0 mi ENE 4.6 mph - N/A   Partly Cloudy
11:36 PM 64.0 °F 60.1 °F 87% 29.95 in 8.0 mi SSE 3.5 mph - N/A Thunderstorm Thunderstorm
11:54 PM 60.1 °F 57.0 °F 90% 30.07 in 10.0 mi ESE 4.6 mph - N/A   Clear